Tracking 31027 objects as of 19-Jul-2025
HD Live streaming from Space Station
objects crossing your sky now

SL-12 R/B(2)

Track SL-12 R/B(2) now!


NORAD ID: 28704
Int'l Code: 2005-023H
Perigee: 35,598.2 km
Apogee: 35,685.9 km
Inclination: 12.5 °
Period: 1,428.4 minutes
Semi major axis: 42013 km
RCS: 5.0238 m2 (large)
Launch date: June 24, 2005
Source: Commonwealth of Independent States (former USSR) (CIS)
Launch site: TYURATAM MISSILE AND SPACE COMPLEX (TTMTR)

Note: This is a ROCKET BODY
Your satellite tracking list
COSMOS 830
Track 1 satellite(s)




NASA's NSSDC Master Catalog

Two Line Element Set (TLE):
1 28704U 05023H   25198.46894383 -.00000266  00000-0  00000-0 0  9996
2 28704  12.5475  21.3031 0010438 322.9895  33.8658  1.00815466 73825
Source of the keplerian elements: AFSPC